This demonstration page uses our WeatherBlox Daily Observations layout. Learn more.

Left ArrowRight Arrow

41.86663, -103.66717

Hourly Observations for July 27, 2018

Temp ( °F °C ) Dew Point ( °F °C ) Humidity (%) Winds ( mph kmh ) Pressure ( in mb ) Visibility ( mi km ) Precip ( " mm )
12:53 am 00:53 Clear 60 15.6 60 15.6 100 100 N 14 22 30.15 1021 10 16.0934 N/A
1:53 am 01:53 Clear 61 16.1 59 15 93 93 ENE 9 15 30.15 1021 10 16.0934 N/A
2:53 am 02:53 Clear 58 14.4 58 14.4 100 100 SSE 10 17 30.1 1019 10 16.0934 N/A
3:53 am 03:53 Clear 57 13.9 57 13.9 100 100 N N/A 30.09 1019 10 16.0934 N/A
4:53 am 04:53 Clear 57 13.9 57 13.9 100 100 NE 6 9 30.09 1019 10 16.0934 N/A
5:53 am 05:53 Sunny 57 13.9 57 13.9 100 100 NNE 5 7 30.1 1019 7 11.26538 N/A
6:53 am 06:53 Sunny 60 15.6 60 15.6 100 100 N N/A 30.11 1020 7 11.26538 N/A
7:53 am 07:53 Sunny with Mist and Fog 61 16.1 61 16.1 100 100 WNW 6 9 30.14 1021 6 9.65604 N/A
8:53 am 08:53 Mostly Sunny 61 16.1 61 16.1 100 100 SSW 5 7 30.15 1021 9 14.48406 N/A
9:53 am 09:53 Sunny 68 20 63 17.2 84 84 NNW 7 11 30.11 1020 10 16.0934 N/A
10:33 am 10:33 Mostly Cloudy 71 21.7 64 17.8 79 79 E 5 7 30 1016 10 16.0934 N/A
10:44 am 10:44 Partly Cloudy 72 22.2 64 17.8 76 76 NNE 3 6 29.97 1015 10 16.0934 N/A
10:53 am 10:53 Partly Cloudy 71 21.7 65 18.3 81 81 VRB 6 9 30.12 1020 10 16.0934 N/A
11:30 am 11:30 Mostly Cloudy with Thunderstorms 70 21 64 18 83 83 W 6 9 30.03 1017 10 16.0934 N/A
11:53 am 11:53 Cloudy with Nearby Thunderstorms 70 21.1 68 20 93 93 S 6 9 30.12 1020 7 11.26538 0.04 1.016
12:09 pm 12:09 Mostly Cloudy 70 21.1 67 19.4 90 90 SE 9 15 30 1016 8 12.87472 N/A
12:39 pm 12:39 Cloudy with Nearby Thunderstorms 70 21.1 66 18.9 87 87 N N/A 30 1016 10 16.0934 N/A
12:53 pm 12:53 Cloudy with Nearby Thunderstorms 70 21.1 66 18.9 87 87 ENE 3 6 30.12 1020 10 16.0934 N/A
1:18 pm 13:18 Mostly Cloudy with Thunderstorms 73 23 66 19 78 78 ESE 9 15 29.97 1015 10 16.0934 N/A
1:33 pm 13:33 Mostly Cloudy with Nearby Thunderstorms 73 22.8 67 19.4 81 81 ESE 7 11 29.97 1015 10 16.0934 N/A
1:40 pm 13:40 Mostly Cloudy 72 22.2 66 18.9 82 82 ESE 10 17 29.94 1014 10 16.0934 N/A
1:53 pm 13:53 Mostly Cloudy 72 22.2 66 18.9 82 82 SE 12 19 30.07 1018 10 16.0934 N/A
2:53 pm 14:53 Mostly Cloudy 74 23.3 65 18.3 74 74 SE 13 20 30.06 1018 10 16.0934 N/A
3:53 pm 15:53 Mostly Cloudy 74 23.3 61 16.1 64 64 SSE 9 15 30.08 1019 10 16.0934 N/A
4:53 pm 16:53 Sunny 74 23.3 59 15 60 60 SE 8 13 30.05 1018 10 16.0934 N/A
5:53 pm 17:53 Sunny 73 22.8 58 14.4 59 59 SE 6 9 30.04 1017 10 16.0934 N/A
6:53 pm 18:53 Sunny 72 22.2 61 16.1 68 68 SE 3 6 30.04 1017 10 16.0934 N/A
7:53 pm 19:53 Partly Cloudy 69 20.6 65 18.3 87 87 NE 3 6 30.08 1019 10 16.0934 N/A
8:53 pm 20:53 Mostly Clear 67 19.4 62 16.7 84 84 SSE 9 15 30.01 1016 10 16.0934 N/A
9:53 pm 21:53 Clear 64 17.8 60 15.6 87 87 ENE 9 15 30.05 1018 10 16.0934 N/A
10:53 pm 22:53 Clear 62 16.7 60 15.6 93 93 E 9 15 30.04 1017 10 16.0934 N/A
11:53 pm 23:53 Clear 62 16.7 61 16.1 96 96 ENE 8 13 30.09 1019 10 16.0934 N/A

Powered by AerisWeather